[[{"header":{"parameterUnit":"m.s-1","parameterCategory":1,"la1":30.2991,"la2":30.254,"lo1":-89.0895,"lo2":-89.0444,"dy":0.0017,"dx":0.0017,"nx":28,"ny":28,"refTime":"2024-12-16T09:00:00:Z","depth":0,"parameterNumber":2,"parameterNumberName":"U-component_of_WINDS"},"data":[0,0,0,0,0,0,0,0,0,0,0,0,0,0,0,0,0,0,0,0,0,0,0,0,0,0,0,0,0,0,0,0,0,0,0,0,0,0,0,0,0,0,0,0,0,0,0,0,0,0,0,0,0,0,0,0,0,0,-4.5675,-4.5675,0,-4.5644,-4.5644,-4.5644,-4.5489,-4.5485,-4.5481,-4.5478,-4.5448,-4.545,-4.5453,0,0,0,0,0,0,0,0,0,0,0,0,0,-4.5602,-4.5604,-4.5675,-4.5675,-4.5674,-4.5645,-4.5644,-4.5644,-4.5489,-4.5485,-4.548,-4.5476,-4.5447,-4.545,-4.5453,0,0,0,0,0,0,0,0,0,0,0,0,0,-4.5609,-4.5605,-4.5675,-4.5594,-4.5586,-4.5645,-4.5644,-4.5644,-4.549,-4.5485,-4.5479,-4.5474,-4.5446,-4.545,-4.5454,-4.5589,0,0,-4.5466,-4.5467,0,0,0,0,0,0,0,0,-4.5609,-4.5612,-4.5606,-4.5599,-4.5591,-4.5565,-4.5607,-4.5625,-4.5492,-4.5527,-4.5478,-4.5471,-4.5491,-4.5491,-4.5498,-4.5587,-4.5586,-4.5466,-4.5469,-4.547,-4.5471,0,0,0,0,0,0,0,-4.5608,-4.5612,-4.5663,-4.5606,-4.5597,-4.5559,-4.5554,-4.561,-4.554,-4.5523,-4.5512,-4.551,-4.5486,-4.5494,-4.5496,-4.5586,-4.5466,-4.547,-4.5472,-4.5473,-4.5787,-4.5792,0,0,0,0,0,0,-4.5619,-4.5613,-4.5664,-4.5662,-4.5586,-4.5565,-4.5559,-4.5579,-4.5539,-4.5528,-4.5515,-4.5503,-4.549,-4.5491,-4.5494,-4.5651,-4.547,-4.5474,-4.5476,-4.5781,-4.5788,-4.5795,0,0,0,0,0,0,-4.5618,-4.5625,-4.5665,-4.5634,-4.5636,-4.5572,-4.5595,-4.5581,-4.5589,-4.5533,-4.552,-4.5536,-4.5486,-4.5489,-4.5567,-4.5648,-4.5476,-4.5479,-4.5774,-4.5783,-4.5791,-4.5965,0,0,0,0,0,0,-4.5617,-4.5626,-4.5676,-4.5637,-4.5639,-4.5738,-4.56,-4.5584,-4.5596,-4.558,-4.5549,-4.5539,-4.5482,-4.5562,-4.5571,-4.565,-4.5482,-4.5766,-4.5778,-4.5788,-4.5952,-4.5979,-4.6002,0,0,0,0,0,-4.5615,-4.5726,-4.5679,-4.5686,-4.57,-4.5743,-4.5744,-4.5676,-4.5603,-4.5653,-4.5618,-4.554,-4.5637,-4.5571,-4.558,-4.5662,-4.5761,-4.5775,-4.5788,-4.5941,-4.5974,-4.6002,0,0,0,0,0,0,-4.5775,-4.5719,-4.5666,-4.5768,-4.5762,-4.5717,-4.5778,-4.5713,-4.5727,-4.5711,-4.5626,-4.5621,-4.5712,-4.5694,-4.5621,-4.5791,-4.5686,-4.5702,-4.58,-4.583,-4.5855,-4.5858,-4.5486,0,0,0,0,0,-4.5823,-4.5862,-4.5811,-4.5905,-4.5905,-4.5843,-4.5859,-4.5807,-4.5797,-4.5793,-4.5763,-4.5757,-4.5786,-4.5807,-4.5831,-4.5949,-4.5941,-4.601,-4.6035,-4.6056,-4.607,-4.6134,-4.6164,-4.5838,-4.5838,-4.5838,0,0,-4.5921,-4.5895,-4.5925,-4.5937,-4.5926,-4.597,-4.5841,-4.5892,-4.5924,-4.5801,-4.5873,-4.5852,-4.5839,-4.5938,-4.5981,-4.5926,-4.6159,-4.6073,-4.609,-4.6093,-4.615,-4.6181,-4.6209,-4.5848,-4.5846,-4.5844,0,0,-4.6122,-4.6106,-4.6184,-4.6176,-4.6161,-4.6119,-4.6138,-4.6104,-4.6084,-4.6156,-4.6065,-4.6102,-4.6154,-4.6149,-4.6154,-4.6356,-4.6286,-4.6366,-4.6497,-4.656,-4.6586,-4.6608,-4.6682,-4.6709,-4.6381,-4.6382,-4.6382,0,-4.6246,-4.6307,-4.6232,-4.629,-4.6299,-4.619,-4.6269,-4.6265,-4.6259,-4.6268,-4.6207,-4.6271,-4.6255,-4.6353,-4.6403,-4.6409,-4.643,-4.6369,-4.6588,-4.661,-4.6629,-4.6699,-4.6727,-4.6392,-4.639,-4.6389,-4.6388,0,-4.6461,-4.6506,-4.657,-4.6568,-4.6584,-4.6652,-4.6589,-4.6614,-4.6562,-4.6527,-4.6602,-4.6579,-4.6597,-4.6616,-4.6565,-4.6708,-4.6675,-4.6603,-4.6495,-4.6672,-4.6736,-4.6761,-4.6406,-4.6402,-4.6399,-4.6397,0,0,-4.6761,-4.6718,-4.6743,-4.6742,-4.6718,-4.6751,-4.6816,-4.6834,-4.6858,-4.6858,-4.6911,-4.6958,-4.6892,-4.6897,-4.6845,-4.69,-4.7064,-4.682,-4.6819,-4.6868,-4.7222,-4.7277,-4.7309,-4.7017,-4.7022,-4.7025,-4.7223,0,-4.6955,-4.7061,-4.6997,-4.7114,-4.7155,-4.7053,-4.711,-4.7102,-4.7072,-4.7103,-4.7069,-4.7105,-4.7014,-4.7017,-4.7067,-4.7034,-4.7134,-4.7018,-4.7066,-4.7069,-4.7073,-4.7342,-4.74,-4.7588,-4.7248,-4.7252,-4.7255,0,-4.7194,-4.7205,-4.7327,-4.7298,-4.7313,-4.7364,-4.7377,-4.7407,-4.7398,-4.7372,-4.738,-4.7314,-4.7376,-4.7271,-4.7356,-4.7279,-4.7295,-4.7282,-4.7288,-4.729,-4.7173,-4.7353,-4.7646,-4.7674,-4.7293,-4.729,-4.7287,0,-4.7402,-4.7448,-4.7527,-4.7529,-4.7496,-4.7536,-4.7524,-4.7509,-4.7524,-4.7536,-4.7545,-4.7564,-4.7574,-4.7591,-4.7533,-4.7461,-4.7627,-4.7515,-4.7608,-4.761,-4.7648,-4.7646,-4.7949,-4.7657,-4.7657,-4.7656,-4.7656,0,-4.7625,-4.7704,-4.7621,-4.767,-4.7755,-4.7681,-4.7768,-4.7746,-4.7734,-4.7777,-4.7691,-4.7733,-4.7654,-4.7689,-4.7644,-4.7723,-4.7728,-4.771,-4.7697,-4.7718,-4.7721,-4.7728,-4.7713,-4.7664,-4.7662,-4.7661,-4.766,0,-4.7872,-4.7819,-4.7899,-4.7863,-4.7856,-4.7921,-4.789,-4.7934,-4.7899,-4.7955,-4.7964,-4.7909,-4.7946,-4.789,-4.7921,-4.7891,-4.8,-4.7967,-4.8004,-4.7994,-4.809,-4.8083,-4.8408,-4.8448,-4.8131,-4.8134,-4.8137,0,-4.8018,-4.8076,-4.8047,-4.807,-4.8064,-4.8102,-4.8118,-4.8048,-4.8068,-4.8063,-4.8109,-4.8139,-4.8159,-4.8224,-4.8187,-4.8211,-4.8178,-4.8291,-4.8181,-4.8201,-4.8181,-4.8179,-4.8185,-4.8313,-4.8317,-4.832,-4.8323,0,-4.8283,-4.8255,-4.8281,-4.83,-4.8321,-4.8332,-4.8337,-4.8361,-4.8288,-4.8315,-4.8353,-4.8369,-4.8401,-4.8433,-4.8447,-4.8436,-4.8369,-4.8358,-4.838,-4.8403,-4.8422,-4.8414,-4.8066,-4.835,-4.8348,-4.8345,-4.8344,-4.8343,-4.8484,-4.8532,-4.852,-4.8553,-4.8549,-4.8556,-4.8597,-4.8567,-4.8597,-4.8618,-4.8575,-4.8624,-4.8615,-4.8628,-4.8624,-4.8662,-4.8612,-4.8645,-4.8654,-4.8663,-4.8679,-4.8416,-4.8664,-4.8663,-4.8662,-4.8662,-4.8661,0,-4.8745,-4.8733,-4.8764,-4.8774,-4.8801,-4.8735,-4.8738,-4.8764,-4.8808,-4.8805,-4.8828,-4.8872,-4.8903,-4.887,-4.8894,-4.8931,-4.8901,-4.894,-4.8937,-4.8936,-4.8721,-4.8699,-4.8964,-4.8964,-4.8964,-4.8964,-4.8964,-4.8964,-4.8884,-4.8963,-4.8934,-4.901,-4.8997,-4.9044,-4.9052,-4.9058,-4.9056,-4.9109,-4.9135,-4.9113,-4.9099,-4.9122,-4.9148,-4.9137,-4.9151,-4.9202,-4.9181,-4.898,-4.8951,-4.8922,-4.8902,-4.9205,-4.9206,-4.9393,-4.9394,-4.9396]},{"header":{"parameterUnit":"m.s-1","parameterCategory":1,"la1":30.2991,"la2":30.254,"lo1":-89.0895,"lo2":-89.0444,"dy":0.0017,"dx":0.0017,"nx":28,"ny":28,"refTime":"2024-12-16T09:00:00:Z","depth":0,"parameterNumber":3,"parameterNumberName":"V-component_of_WINDS"},"data":[0,0,0,0,0,0,0,0,0,0,0,0,0,0,0,0,0,0,0,0,0,0,0,0,0,0,0,0,0,0,0,0,0,0,0,0,0,0,0,0,0,0,0,0,0,0,0,0,0,0,0,0,0,0,0,0,0,0,-0.6382,-0.6382,0,-0.6413,-0.6413,-0.6414,-0.6398,-0.6397,-0.6396,-0.6395,-0.6429,-0.643,-0.6432,0,0,0,0,0,0,0,0,0,0,0,0,0,-0.631,-0.6311,-0.6382,-0.6382,-0.6383,-0.6413,-0.6413,-0.6414,-0.6398,-0.6397,-0.6396,-0.6395,-0.6428,-0.643,-0.6432,0,0,0,0,0,0,0,0,0,0,0,0,0,-0.6341,-0.6311,-0.6382,-0.6379,-0.6379,-0.6413,-0.6413,-0.6414,-0.6398,-0.6397,-0.6396,-0.6395,-0.6428,-0.643,-0.6432,-0.6472,0,0,-0.644,-0.6441,0,0,0,0,0,0,0,0,-0.6339,-0.6344,-0.6379,-0.6379,-0.6379,-0.64,-0.64,-0.6433,-0.6399,-0.6391,-0.6395,-0.6394,-0.642,-0.6423,-0.6432,-0.6474,-0.6475,-0.644,-0.6442,-0.6443,-0.6443,0,0,0,0,0,0,0,-0.6337,-0.6342,-0.6394,-0.6379,-0.6379,-0.6375,-0.6379,-0.6406,-0.6412,-0.6391,-0.639,-0.6394,-0.642,-0.643,-0.6433,-0.6476,-0.644,-0.6442,-0.6444,-0.6445,-0.655,-0.6551,0,0,0,0,0,0,-0.6335,-0.634,-0.6393,-0.6395,-0.6356,-0.6378,-0.6381,-0.6395,-0.6412,-0.6413,-0.6395,-0.6393,-0.6426,-0.643,-0.6434,-0.648,-0.6443,-0.6445,-0.6446,-0.6548,-0.655,-0.6551,0,0,0,0,0,0,-0.6333,-0.634,-0.6392,-0.6368,-0.6374,-0.638,-0.6396,-0.6396,-0.6405,-0.6415,-0.6416,-0.6404,-0.6425,-0.643,-0.6462,-0.6481,-0.6446,-0.6448,-0.6547,-0.6549,-0.6551,-0.6574,0,0,0,0,0,0,-0.6331,-0.6339,-0.6355,-0.6368,-0.6375,-0.642,-0.6397,-0.6397,-0.6409,-0.6407,-0.6423,-0.6424,-0.6424,-0.6458,-0.6465,-0.6484,-0.645,-0.6545,-0.6548,-0.655,-0.6572,-0.6577,-0.6581,0,0,0,0,0,-0.6329,-0.6361,-0.6356,-0.6362,-0.6395,-0.6421,-0.6426,-0.6425,-0.6411,-0.6426,-0.6432,-0.6424,-0.6478,-0.6462,-0.6469,-0.6489,-0.6544,-0.6547,-0.655,-0.657,-0.6576,-0.6581,0,0,0,0,0,0,-0.6351,-0.6363,-0.6357,-0.6394,-0.6407,-0.6419,-0.6438,-0.6431,-0.6449,-0.6446,-0.6445,-0.6448,-0.6481,-0.6488,-0.647,-0.6527,-0.6509,-0.6513,-0.6522,-0.6527,-0.6532,-0.653,-0.6452,0,0,0,0,0,-0.636,-0.6381,-0.639,-0.6422,-0.6428,-0.6432,-0.6444,-0.6442,-0.6455,-0.646,-0.6468,-0.6482,-0.6502,-0.6515,-0.6534,-0.6572,-0.6575,-0.659,-0.6594,-0.6598,-0.6602,-0.6621,-0.6627,-0.6561,-0.6561,-0.6561,0,0,-0.6379,-0.6388,-0.6402,-0.6426,-0.6436,-0.6457,-0.6437,-0.646,-0.6476,-0.6464,-0.6494,-0.6501,-0.6515,-0.655,-0.6566,-0.6557,-0.6621,-0.6602,-0.6605,-0.6606,-0.6625,-0.6631,-0.6637,-0.6563,-0.6562,-0.6562,0,0,-0.6425,-0.6434,-0.6461,-0.647,-0.6484,-0.6486,-0.6493,-0.6505,-0.6508,-0.6538,-0.653,-0.6548,-0.6583,-0.6593,-0.6603,-0.665,-0.6642,-0.6656,-0.668,-0.6699,-0.6704,-0.6709,-0.6725,-0.6731,-0.666,-0.666,-0.666,0,-0.6448,-0.6479,-0.6476,-0.65,-0.651,-0.6499,-0.6526,-0.6535,-0.6555,-0.6563,-0.6552,-0.6594,-0.6603,-0.664,-0.6651,-0.6659,-0.6666,-0.6654,-0.6704,-0.6708,-0.6713,-0.6728,-0.6734,-0.6661,-0.6661,-0.6661,-0.6661,0,-0.6505,-0.6527,-0.6547,-0.6565,-0.6578,-0.6603,-0.6603,-0.6617,-0.6613,-0.6616,-0.6646,-0.6656,-0.6676,-0.6685,-0.6682,-0.672,-0.6714,-0.6704,-0.6685,-0.6721,-0.6735,-0.6741,-0.6663,-0.6663,-0.6662,-0.6662,0,0,-0.6568,-0.6582,-0.6589,-0.6596,-0.661,-0.6627,-0.6651,-0.6669,-0.668,-0.6694,-0.6713,-0.6742,-0.6731,-0.6742,-0.6741,-0.6757,-0.6792,-0.6744,-0.6745,-0.6753,-0.6834,-0.6842,-0.6848,-0.6787,-0.6788,-0.6789,-0.6832,0,-0.6614,-0.6655,-0.6652,-0.6692,-0.6711,-0.6699,-0.672,-0.673,-0.6733,-0.675,-0.6753,-0.6773,-0.6758,-0.6764,-0.678,-0.6785,-0.6809,-0.6782,-0.6806,-0.6806,-0.6802,-0.6856,-0.6865,-0.6905,-0.6838,-0.6839,-0.684,0,-0.6674,-0.6688,-0.6729,-0.6737,-0.6745,-0.6764,-0.6779,-0.6795,-0.6806,-0.6807,-0.6818,-0.6813,-0.6837,-0.6817,-0.6849,-0.6831,-0.684,-0.6844,-0.6845,-0.6847,-0.6825,-0.686,-0.6918,-0.6924,-0.6849,-0.6848,-0.6847,0,-0.6714,-0.6743,-0.6771,-0.6778,-0.6789,-0.6802,-0.6807,-0.6817,-0.6827,-0.6841,-0.6848,-0.6864,-0.6873,-0.6886,-0.6885,-0.6871,-0.6918,-0.6898,-0.6919,-0.6919,-0.693,-0.6929,-0.699,-0.6936,-0.6936,-0.6936,-0.6936,0,-0.6767,-0.6792,-0.6789,-0.6806,-0.6833,-0.6829,-0.6856,-0.686,-0.6868,-0.6886,-0.6877,-0.6893,-0.6891,-0.6908,-0.6907,-0.6933,-0.6938,-0.6939,-0.6938,-0.6939,-0.6939,-0.6946,-0.6943,-0.6937,-0.6937,-0.6937,-0.6936,0,-0.6817,-0.6816,-0.6845,-0.6852,-0.6855,-0.6874,-0.688,-0.6896,-0.6897,-0.6919,-0.6924,-0.6926,-0.6945,-0.6945,-0.6967,-0.6966,-0.6998,-0.6994,-0.6994,-0.6993,-0.7013,-0.7011,-0.7081,-0.709,-0.703,-0.7031,-0.7031,0,-0.685,-0.6869,-0.6877,-0.6888,-0.6893,-0.6911,-0.6921,-0.6917,-0.6928,-0.694,-0.6954,-0.6972,-0.6986,-0.7016,-0.7019,-0.7035,-0.7032,-0.7055,-0.7035,-0.7035,-0.7032,-0.7031,-0.7032,-0.706,-0.706,-0.7061,-0.7061,0,-0.6909,-0.6907,-0.6922,-0.6936,-0.6948,-0.6959,-0.6969,-0.6978,-0.6975,-0.6988,-0.7006,-0.7017,-0.7038,-0.7055,-0.707,-0.7075,-0.7068,-0.7067,-0.7073,-0.7075,-0.7073,-0.7073,-0.7005,-0.7066,-0.7066,-0.7065,-0.7065,-0.7065,-0.6952,-0.6967,-0.6975,-0.6991,-0.6998,-0.7007,-0.7021,-0.7023,-0.7038,-0.7054,-0.7051,-0.7071,-0.708,-0.7099,-0.7106,-0.7121,-0.7113,-0.7121,-0.7123,-0.7125,-0.7127,-0.707,-0.7124,-0.7124,-0.7124,-0.7124,-0.7124,0,-0.7009,-0.7013,-0.7028,-0.7041,-0.7054,-0.7044,-0.7054,-0.7065,-0.7083,-0.7091,-0.7104,-0.7124,-0.714,-0.7144,-0.716,-0.7171,-0.7168,-0.7176,-0.7175,-0.7176,-0.7134,-0.7127,-0.7178,-0.7178,-0.7178,-0.7178,-0.7178,-0.7178,-0.7041,-0.7066,-0.7065,-0.7092,-0.7096,-0.7115,-0.7121,-0.7129,-0.7136,-0.7158,-0.7171,-0.7173,-0.7179,-0.7195,-0.7209,-0.721,-0.7216,-0.7224,-0.7224,-0.7185,-0.7179,-0.7174,-0.7168,-0.7226,-0.7226,-0.7264,-0.7264,-0.7265]}]]